Location: Zagreb
(45.8000°N, 16.0000°E)
Time: 01:12:35
(UTC+01:00)

SR - Pass Details

Date: 13 August 2020
Orbit: 576 x 879 km, 66.7° (Epoch: 15 January)

Event Time Altitude Azimuth Distance (km) Brightness Sun altitude
Rises 00:10:44 0° 274° (W) 2,872 ? -28.5°
Reaches altitude 10° 00:14:50 10° 312° (NW) 1,924 ? -28.7°
Maximum altitude 00:15:59 11° 327° (NNW) 1,855 ? -28.7°
Drops below altitude 10° 00:17:08 10° 343° (NNW) 1,908 ? -28.8°
Sets 00:21:09 0° 21° (NNE) 2,797 ? -28.9°
